Time,TemperatureF,DewpointF,PressureIn,WindDirection,WindDirectionDegrees,WindSpeedMPH,WindSpeedGustMPH,Humidity,HourlyPrecipIn,Conditions,Clouds,dailyrainin,SolarRadiationWatts/m^2,SoftwareType,DateUTC
2013-08-16 00:00:00,84.9,51.8,30.01,ESE,105,0.0,2.0,32,0.00,,,0.00,0.0,meteohub,2013-08-16 07:00:00,
2013-08-16 00:05:00,84.7,52.5,30.01,ESE,105,0.0,1.0,33,0.00,,,0.00,0.0,meteohub,2013-08-16 07:05:00,
2013-08-16 00:10:00,84.4,52.2,30.01,ESE,105,0.0,1.0,33,0.00,,,0.00,0.0,meteohub,2013-08-16 07:10:00,
2013-08-16 00:15:00,84.2,52.0,30.01,ESE,105,0.0,1.0,33,0.00,,,0.00,0.0,meteohub,2013-08-16 07:15:00,
2013-08-16 00:20:00,83.8,52.5,30.01,ESE,105,2.0,2.0,34,0.00,,,0.00,0.0,meteohub,2013-08-16 07:20:00,
2013-08-16 00:25:00,83.7,52.3,30.01,ESE,105,0.0,2.0,34,0.00,,,0.00,0.0,meteohub,2013-08-16 07:25:00,
2013-08-16 00:30:00,83.5,52.2,30.00,ESE,105,1.0,2.0,34,0.00,,,0.00,0.0,meteohub,2013-08-16 07:30:00,
2013-08-16 00:35:00,83.7,52.3,30.00,ESE,110,1.0,2.0,34,0.00,,,0.00,0.0,meteohub,2013-08-16 07:35:00,
2013-08-16 00:40:00,84.2,52.0,30.00,ESE,111,1.0,3.0,33,0.00,,,0.00,0.0,meteohub,2013-08-16 07:40:00,
2013-08-16 00:45:00,84.4,52.2,30.00,ESE,111,0.0,3.0,33,0.00,,,0.00,0.0,meteohub,2013-08-16 07:45:00,
2013-08-16 00:51:00,84.0,52.7,30.00,ESE,111,1.0,2.0,34,0.00,,,0.00,0.0,meteohub,2013-08-16 07:51:00,
2013-08-16 00:56:00,83.8,52.5,30.00,ESE,120,0.0,2.0,34,0.00,,,0.00,0.0,meteohub,2013-08-16 07:56:00,
2013-08-16 01:01:00,83.7,52.3,29.99,ESE,120,1.0,2.0,34,0.00,,,0.00,0.0,meteohub,2013-08-16 08:01:00,
2013-08-16 01:06:00,83.5,52.2,29.99,ESE,119,0.0,3.0,34,0.00,,,0.00,0.0,meteohub,2013-08-16 08:06:00,
2013-08-16 01:11:00,83.1,52.7,29.99,ESE,119,1.0,3.0,35,0.00,,,0.00,0.0,meteohub,2013-08-16 08:11:00,
2013-08-16 01:16:00,82.9,52.5,29.99,ESE,119,2.0,3.0,35,0.00,,,0.00,0.0,meteohub,2013-08-16 08:16:00,
2013-08-16 01:21:00,82.6,52.2,29.99,ESE,123,1.0,2.0,35,0.00,,,0.00,0.0,meteohub,2013-08-16 08:21:00,
2013-08-16 01:26:00,82.6,52.2,29.99,SE,124,0.0,2.0,35,0.00,,,0.00,0.0,meteohub,2013-08-16 08:26:00,
2013-08-16 01:31:00,82.6,52.2,29.99,SE,124,0.0,2.0,35,0.00,,,0.00,0.0,meteohub,2013-08-16 08:31:00,
2013-08-16 01:36:00,82.6,52.9,29.99,ESE,123,1.0,2.0,36,0.00,,,0.00,0.0,meteohub,2013-08-16 08:36:00,
2013-08-16 01:41:00,82.6,52.9,29.99,ESE,123,0.0,3.0,36,0.00,,,0.00,0.0,meteohub,2013-08-16 08:41:00,
2013-08-16 01:46:00,82.4,52.7,29.99,ESE,123,1.0,3.0,36,0.00,,,0.00,0.0,meteohub,2013-08-16 08:46:00,
2013-08-16 01:51:00,82.0,52.5,29.99,ESE,123,0.0,3.0,36,0.00,,,0.00,0.0,meteohub,2013-08-16 08:51:00,
2013-08-16 01:56:00,81.7,52.9,29.99,ESE,123,1.0,2.0,37,0.00,,,0.00,0.0,meteohub,2013-08-16 08:56:00,
2013-08-16 02:01:00,81.1,52.3,29.99,ESE,123,1.0,2.0,37,0.00,,,0.00,0.0,meteohub,2013-08-16 09:01:00,
2013-08-16 02:06:00,80.8,52.9,29.99,ESE,123,1.0,2.0,38,0.00,,,0.00,0.0,meteohub,2013-08-16 09:06:00,
2013-08-16 02:11:00,80.4,52.5,29.99,ESE,123,0.0,2.0,38,0.00,,,0.00,0.0,meteohub,2013-08-16 09:11:00,
2013-08-16 02:16:00,80.2,53.1,29.99,ESE,123,0.0,2.0,39,0.00,,,0.00,0.0,meteohub,2013-08-16 09:16:00,
2013-08-16 02:22:00,80.1,52.9,29.99,ESE,123,1.0,2.0,39,0.00,,,0.00,0.0,meteohub,2013-08-16 09:22:00,
2013-08-16 02:27:00,80.1,52.9,29.99,SSE,151,1.0,3.0,39,0.00,,,0.00,0.0,meteohub,2013-08-16 09:27:00,
2013-08-16 02:32:00,80.1,52.9,30.00,SSE,151,0.0,3.0,39,0.00,,,0.00,0.0,meteohub,2013-08-16 09:32:00,
2013-08-16 02:37:00,80.1,52.9,30.00,SSE,151,1.0,3.0,39,0.00,,,0.00,0.0,meteohub,2013-08-16 09:37:00,
2013-08-16 02:42:00,80.2,53.1,30.00,NW,309,0.0,3.0,39,0.00,,,0.00,0.0,meteohub,2013-08-16 09:42:00,
2013-08-16 02:47:00,80.4,53.2,30.00,NW,309,3.0,4.0,39,0.00,,,0.00,0.0,meteohub,2013-08-16 09:47:00,
2013-08-16 02:52:00,81.1,53.1,30.00,WNW,288,2.0,5.0,38,0.00,,,0.00,0.0,meteohub,2013-08-16 09:52:00,
2013-08-16 02:57:00,81.1,53.1,30.00,WNW,286,0.0,5.0,38,0.00,,,0.00,0.0,meteohub,2013-08-16 09:57:00,
2013-08-16 03:02:00,81.0,52.9,30.00,WNW,286,0.0,5.0,38,0.00,,,0.00,0.0,meteohub,2013-08-16 10:02:00,
2013-08-16 03:07:00,81.0,53.6,30.00,WNW,286,1.0,3.0,39,0.00,,,0.00,0.0,meteohub,2013-08-16 10:07:00,
2013-08-16 03:12:00,80.6,53.4,30.00,WNW,286,0.0,2.0,39,0.00,,,0.00,0.0,meteohub,2013-08-16 10:12:00,
2013-08-16 03:17:00,80.2,53.1,30.00,WNW,286,0.0,2.0,39,0.00,,,0.00,0.0,meteohub,2013-08-16 10:17:00,
2013-08-16 03:22:00,80.1,53.6,30.00,WNW,286,0.0,2.0,40,0.00,,,0.00,0.0,meteohub,2013-08-16 10:22:00,
2013-08-16 03:27:00,79.5,53.1,30.00,WNW,286,0.0,1.0,40,0.00,,,0.00,0.0,meteohub,2013-08-16 10:27:00,
2013-08-16 03:32:00,79.2,53.4,30.00,WNW,286,0.0,1.0,41,0.00,,,0.00,0.0,meteohub,2013-08-16 10:32:00,
2013-08-16 03:37:00,79.0,53.2,30.00,WNW,286,0.0,1.0,41,0.00,,,0.00,0.0,meteohub,2013-08-16 10:37:00,
2013-08-16 03:42:00,79.0,53.2,30.00,WNW,286,1.0,2.0,41,0.00,,,0.00,0.0,meteohub,2013-08-16 10:42:00,
2013-08-16 03:47:00,79.2,53.4,30.00,WNW,286,1.0,2.0,41,0.00,,,0.00,0.0,meteohub,2013-08-16 10:47:00,
2013-08-16 03:52:00,79.3,53.6,30.00,WNW,286,0.0,2.0,41,0.00,,,0.00,0.0,meteohub,2013-08-16 10:52:00,
2013-08-16 03:57:00,79.2,53.4,30.00,WNW,286,0.0,2.0,41,0.00,,,0.00,0.0,meteohub,2013-08-16 10:57:00,
2013-08-16 04:02:00,79.0,54.0,30.00,WNW,286,0.0,2.0,42,0.00,,,0.00,0.0,meteohub,2013-08-16 11:02:00,
2013-08-16 04:07:00,78.4,54.1,30.00,WNW,286,1.0,1.0,43,0.00,,,0.00,0.0,meteohub,2013-08-16 11:07:00,
2013-08-16 04:12:00,78.4,54.1,30.00,WNW,286,1.0,3.0,43,0.00,,,0.00,0.0,meteohub,2013-08-16 11:12:00,
2013-08-16 04:17:00,78.3,54.0,30.01,WNW,286,1.0,3.0,43,0.00,,,0.00,0.0,meteohub,2013-08-16 11:17:00,
2013-08-16 04:22:00,78.1,54.3,30.01,WNW,286,1.0,3.0,44,0.00,,,0.00,0.0,meteohub,2013-08-16 11:22:00,
2013-08-16 04:27:00,78.1,54.3,30.01,WNW,286,0.0,2.0,44,0.00,,,0.00,0.0,meteohub,2013-08-16 11:27:00,
2013-08-16 04:32:00,78.1,54.3,30.01,WNW,286,0.0,2.0,44,0.00,,,0.00,0.0,meteohub,2013-08-16 11:32:00,
2013-08-16 04:37:00,78.3,54.0,30.01,WNW,286,0.0,2.0,43,0.00,,,0.00,0.0,meteohub,2013-08-16 11:37:00,
2013-08-16 04:42:00,78.4,54.1,30.01,WNW,286,0.0,2.0,43,0.00,,,0.00,0.0,meteohub,2013-08-16 11:42:00,
2013-08-16 04:47:00,78.4,54.7,30.01,WNW,286,1.0,2.0,44,0.00,,,0.00,0.0,meteohub,2013-08-16 11:47:00,
2013-08-16 04:52:00,78.6,54.3,30.01,WNW,286,0.0,3.0,43,0.00,,,0.00,0.0,meteohub,2013-08-16 11:52:00,
2013-08-16 04:57:00,78.6,54.9,30.01,WNW,286,1.0,3.0,44,0.00,,,0.00,0.0,meteohub,2013-08-16 11:57:00,
2013-08-16 05:02:00,78.4,54.7,30.01,WNW,286,0.0,3.0,44,0.00,,,0.00,0.0,meteohub,2013-08-16 12:02:00,
2013-08-16 05:06:00,78.1,55.0,30.01,WNW,286,0.0,2.0,45,0.00,,,0.00,0.0,meteohub,2013-08-16 12:06:00,
2013-08-16 05:11:00,77.7,54.7,30.01,WNW,286,0.0,2.0,45,0.00,,,0.00,0.0,meteohub,2013-08-16 12:11:00,
2013-08-16 05:16:00,77.4,54.3,30.02,WNW,286,0.0,1.0,45,0.00,,,0.00,0.0,meteohub,2013-08-16 12:16:00,
2013-08-16 05:21:00,77.2,54.9,30.02,WNW,286,0.0,1.0,46,0.00,,,0.00,0.0,meteohub,2013-08-16 12:21:00,
2013-08-16 05:26:00,76.8,55.0,30.02,WNW,286,1.0,1.0,47,0.00,,,0.00,0.0,meteohub,2013-08-16 12:26:00,
2013-08-16 05:31:00,76.5,54.7,30.02,WNW,286,0.0,1.0,47,0.00,,,0.00,0.0,meteohub,2013-08-16 12:31:00,
2013-08-16 05:36:00,75.9,54.9,30.02,WNW,286,1.0,1.0,48,0.00,,,0.00,0.0,meteohub,2013-08-16 12:36:00,
2013-08-16 05:41:00,75.6,55.0,30.03,WNW,286,1.0,1.0,49,0.00,,,0.00,0.0,meteohub,2013-08-16 12:41:00,
2013-08-16 05:46:00,75.4,54.9,30.03,WNW,286,0.0,2.0,49,0.00,,,0.00,5.0,meteohub,2013-08-16 12:46:00,
2013-08-16 05:51:00,75.0,55.0,30.03,WNW,286,1.0,2.0,50,0.00,,,0.00,7.0,meteohub,2013-08-16 12:51:00,
2013-08-16 05:56:00,74.8,55.6,30.03,WNW,286,0.0,2.0,51,0.00,,,0.00,11.0,meteohub,2013-08-16 12:56:00,
2013-08-16 06:02:00,74.7,55.9,30.03,WNW,286,0.0,1.0,52,0.00,,,0.00,12.0,meteohub,2013-08-16 13:02:00,
2013-08-16 06:07:00,74.5,55.8,30.03,WNW,286,0.0,1.0,52,0.00,,,0.00,16.0,meteohub,2013-08-16 13:07:00,
2013-08-16 06:12:00,74.5,56.3,30.03,WNW,286,0.0,0.0,53,0.00,,,0.00,19.0,meteohub,2013-08-16 13:12:00,
2013-08-16 06:17:00,74.5,56.3,30.03,WNW,286,0.0,1.0,53,0.00,,,0.00,23.0,meteohub,2013-08-16 13:17:00,
2013-08-16 06:22:00,74.5,56.3,30.03,WNW,286,0.0,1.0,53,0.00,,,0.00,25.0,meteohub,2013-08-16 13:22:00,
2013-08-16 06:27:00,74.8,56.5,30.03,WNW,286,1.0,1.0,53,0.00,,,0.00,39.0,meteohub,2013-08-16 13:27:00,
2013-08-16 06:32:00,75.6,57.2,30.03,WNW,286,0.0,1.0,53,0.00,,,0.00,65.0,meteohub,2013-08-16 13:32:00,
2013-08-16 06:37:00,76.3,57.4,30.03,WNW,286,0.0,1.0,52,0.00,,,0.00,90.0,meteohub,2013-08-16 13:37:00,
2013-08-16 06:42:00,77.4,57.7,30.03,WNW,286,0.0,1.0,51,0.00,,,0.00,107.0,meteohub,2013-08-16 13:42:00,
2013-08-16 06:47:00,78.3,58.1,30.03,WNW,286,0.0,1.0,50,0.00,,,0.00,130.0,meteohub,2013-08-16 13:47:00,
2013-08-16 06:52:00,79.2,57.7,30.04,WNW,286,1.0,1.0,48,0.00,,,0.00,151.0,meteohub,2013-08-16 13:52:00,
2013-08-16 06:57:00,80.1,58.1,30.04,WNW,286,1.0,1.0,47,0.00,,,0.00,171.0,meteohub,2013-08-16 13:57:00,
2013-08-16 07:02:00,81.0,58.3,30.04,WNW,286,0.0,1.0,46,0.00,,,0.00,186.0,meteohub,2013-08-16 14:02:00,
2013-08-16 07:07:00,82.0,57.9,30.04,WNW,286,1.0,1.0,44,0.00,,,0.00,204.0,meteohub,2013-08-16 14:07:00,
2013-08-16 07:12:00,82.9,58.1,30.04,WNW,286,0.0,1.0,43,0.00,,,0.00,221.0,meteohub,2013-08-16 14:12:00,
2013-08-16 07:17:00,83.8,57.6,30.04,WNW,286,0.0,1.0,41,0.00,,,0.00,237.0,meteohub,2013-08-16 14:17:00,
2013-08-16 07:21:00,84.9,57.2,30.04,WNW,286,0.0,1.0,39,0.00,,,0.00,257.0,meteohub,2013-08-16 14:21:00,
2013-08-16 07:27:00,86.2,56.8,30.04,WNW,286,0.0,1.0,37,0.00,,,0.00,274.0,meteohub,2013-08-16 14:27:00,
2013-08-16 07:32:00,87.3,57.0,30.04,WNW,286,0.0,1.0,36,0.00,,,0.00,292.0,meteohub,2013-08-16 14:32:00,
2013-08-16 07:37:00,88.3,57.2,30.04,WNW,286,2.0,2.0,35,0.00,,,0.00,308.0,meteohub,2013-08-16 14:37:00,
2013-08-16 07:42:00,88.3,57.2,30.04,WNW,286,1.0,2.0,35,0.00,,,0.00,325.0,meteohub,2013-08-16 14:42:00,
2013-08-16 07:47:00,88.3,57.2,30.04,WNW,286,0.0,2.0,35,0.00,,,0.00,343.0,meteohub,2013-08-16 14:47:00,
2013-08-16 07:52:00,88.5,57.4,30.04,WNW,286,0.0,3.0,35,0.00,,,0.00,360.0,meteohub,2013-08-16 14:52:00,
2013-08-16 07:57:00,88.7,57.6,30.04,WSW,244,2.0,3.0,35,0.00,,,0.00,378.0,meteohub,2013-08-16 14:57:00,
2013-08-16 08:02:00,89.1,57.9,30.04,WSW,240,1.0,3.0,35,0.00,,,0.00,397.0,meteohub,2013-08-16 15:02:00,
2013-08-16 08:07:00,89.8,57.7,30.04,WSW,240,2.0,3.0,34,0.00,,,0.00,415.0,meteohub,2013-08-16 15:07:00,
2013-08-16 08:12:00,90.0,57.7,30.04,SW,227,1.0,3.0,34,0.00,,,0.00,431.0,meteohub,2013-08-16 15:12:00,
2013-08-16 08:17:00,90.0,57.7,30.04,SSW,213,2.0,3.0,34,0.00,,,0.00,446.0,meteohub,2013-08-16 15:17:00,
2013-08-16 08:22:00,90.1,57.2,30.04,SW,217,1.0,4.0,33,0.00,,,0.00,464.0,meteohub,2013-08-16 15:22:00,
2013-08-16 08:27:00,90.1,57.9,30.04,WSW,246,2.0,4.0,34,0.00,,,0.00,478.0,meteohub,2013-08-16 15:27:00,
2013-08-16 08:32:00,90.3,58.1,30.05,SW,217,2.0,5.0,34,0.00,,,0.00,496.0,meteohub,2013-08-16 15:32:00,
2013-08-16 08:37:00,90.5,57.4,30.05,West,269,2.0,5.0,33,0.00,,,0.00,515.0,meteohub,2013-08-16 15:37:00,
2013-08-16 08:42:00,90.7,57.6,30.04,WSW,246,2.0,5.0,33,0.00,,,0.00,531.0,meteohub,2013-08-16 15:42:00,
2013-08-16 08:47:00,91.0,57.0,30.05,SSW,202,2.0,7.0,32,0.00,,,0.00,548.0,meteohub,2013-08-16 15:47:00,
2013-08-16 08:52:00,91.0,57.0,30.05,WSW,240,2.0,7.0,32,0.00,,,0.00,564.0,meteohub,2013-08-16 15:52:00,
2013-08-16 08:57:00,90.9,56.8,30.05,WSW,239,3.0,7.0,32,0.00,,,0.00,578.0,meteohub,2013-08-16 15:57:00,
2013-08-16 09:02:00,91.2,57.2,30.05,NW,305,2.0,6.0,32,0.00,,,0.00,594.0,meteohub,2013-08-16 16:02:00,
2013-08-16 09:07:00,91.9,57.0,30.05,SSW,207,3.0,6.0,31,0.00,,,0.00,606.0,meteohub,2013-08-16 16:07:00,
2013-08-16 09:12:00,92.1,57.2,30.05,SW,235,0.0,5.0,31,0.00,,,0.00,624.0,meteohub,2013-08-16 16:12:00,
2013-08-16 09:17:00,92.7,56.7,30.05,West,268,3.0,5.0,30,0.00,,,0.00,640.0,meteohub,2013-08-16 16:17:00,
2013-08-16 09:22:00,92.7,56.7,30.05,West,259,2.0,6.0,30,0.00,,,0.00,656.0,meteohub,2013-08-16 16:22:00,
2013-08-16 09:27:00,93.0,57.0,30.05,NW,320,2.0,6.0,30,0.00,,,0.00,670.0,meteohub,2013-08-16 16:27:00,
2013-08-16 09:32:00,93.9,57.7,30.05,NW,306,2.0,6.0,30,0.00,,,0.00,680.0,meteohub,2013-08-16 16:32:00,
2013-08-16 09:37:00,94.5,57.4,30.05,WNW,284,2.0,4.0,29,0.00,,,0.00,680.0,meteohub,2013-08-16 16:37:00,
2013-08-16 09:42:00,95.2,57.9,30.04,West,266,2.0,4.0,29,0.00,,,0.00,708.0,meteohub,2013-08-16 16:42:00,
2013-08-16 09:47:00,95.7,57.4,30.04,SSW,204,3.0,5.0,28,0.00,,,0.00,722.0,meteohub,2013-08-16 16:47:00,
2013-08-16 09:52:00,96.4,57.9,30.05,West,275,4.0,5.0,28,0.00,,,0.00,735.0,meteohub,2013-08-16 16:52:00,
2013-08-16 09:57:00,96.3,57.9,30.04,NW,312,1.0,5.0,28,0.00,,,0.00,749.0,meteohub,2013-08-16 16:57:00,
2013-08-16 10:02:00,96.3,57.9,30.04,SSW,193,1.0,4.0,28,0.00,,,0.00,759.0,meteohub,2013-08-16 17:02:00,
2013-08-16 10:07:00,96.6,57.2,30.04,ESE,105,2.0,4.0,27,0.00,,,0.00,773.0,meteohub,2013-08-16 17:07:00,
2013-08-16 10:12:00,97.2,57.6,30.04,South,179,2.0,6.0,27,0.00,,,0.00,784.0,meteohub,2013-08-16 17:12:00,
2013-08-16 10:17:00,97.7,57.0,30.04,SW,227,0.0,7.0,26,0.00,,,0.00,793.0,meteohub,2013-08-16 17:17:00,
2013-08-16 10:22:00,98.1,57.4,30.04,East,90,2.0,7.0,26,0.00,,,0.00,807.0,meteohub,2013-08-16 17:22:00,
2013-08-16 10:27:00,98.8,56.8,30.04,ESE,107,2.0,7.0,25,0.00,,,0.00,817.0,meteohub,2013-08-16 17:27:00,
2013-08-16 10:32:00,99.7,57.6,30.04,SE,138,2.0,6.0,25,0.00,,,0.00,821.0,meteohub,2013-08-16 17:32:00,
2013-08-16 10:37:00,100.0,56.8,30.04,SE,130,1.0,8.0,24,0.00,,,0.00,835.0,meteohub,2013-08-16 17:37:00,
2013-08-16 10:43:00,100.8,56.1,30.04,East,84,5.0,8.0,23,0.00,,,0.00,849.0,meteohub,2013-08-16 17:43:00,
2013-08-16 10:48:00,100.9,56.3,30.04,East,92,5.0,9.0,23,0.00,,,0.00,860.0,meteohub,2013-08-16 17:48:00,
2013-08-16 10:53:00,100.9,56.3,30.03,ENE,70,0.0,9.0,23,0.00,,,0.00,867.0,meteohub,2013-08-16 17:53:00,
2013-08-16 10:58:00,101.1,55.2,30.03,ENE,62,3.0,9.0,22,0.00,,,0.00,877.0,meteohub,2013-08-16 17:58:00,
2013-08-16 11:03:00,101.5,55.6,30.03,NE,34,3.0,9.0,22,0.00,,,0.00,888.0,meteohub,2013-08-16 18:03:00,
2013-08-16 11:08:00,102.0,54.7,30.03,NNE,15,3.0,9.0,21,0.00,,,0.00,891.0,meteohub,2013-08-16 18:08:00,
2013-08-16 11:13:00,101.8,54.5,30.02,ENE,57,3.0,7.0,21,0.00,,,0.00,898.0,meteohub,2013-08-16 18:13:00,
2013-08-16 11:18:00,102.0,54.7,30.03,ESE,102,2.0,6.0,21,0.00,,,0.00,905.0,meteohub,2013-08-16 18:18:00,
2013-08-16 11:23:00,101.7,54.5,30.02,ESE,103,2.0,10.0,21,0.00,,,0.00,914.0,meteohub,2013-08-16 18:23:00,
2013-08-16 11:28:00,102.2,53.6,30.02,NW,308,6.0,10.0,20,0.00,,,0.00,919.0,meteohub,2013-08-16 18:28:00,
2013-08-16 11:33:00,102.6,52.3,30.02,WSW,250,3.0,8.0,19,0.00,,,0.00,926.0,meteohub,2013-08-16 18:33:00,
2013-08-16 11:38:00,102.9,52.7,30.02,NE,55,6.0,7.0,19,0.00,,,0.00,933.0,meteohub,2013-08-16 18:38:00,
2013-08-16 11:43:00,102.9,52.7,30.01,NE,34,1.0,10.0,19,0.00,,,0.00,940.0,meteohub,2013-08-16 18:43:00,
2013-08-16 11:48:00,103.1,51.4,30.01,ESE,113,3.0,10.0,18,0.00,,,0.00,944.0,meteohub,2013-08-16 18:48:00,
2013-08-16 11:53:00,103.1,51.4,30.01,North,5,3.0,10.0,18,0.00,,,0.00,956.0,meteohub,2013-08-16 18:53:00,
2013-08-16 11:58:00,103.5,51.6,30.01,ENE,68,8.0,9.0,18,0.00,,,0.00,958.0,meteohub,2013-08-16 18:58:00,
2013-08-16 12:03:00,103.3,51.6,30.01,ENE,71,3.0,10.0,18,0.00,,,0.00,963.0,meteohub,2013-08-16 19:03:00,
2013-08-16 12:08:00,103.1,51.4,30.01,NNW,342,2.0,10.0,18,0.00,,,0.00,970.0,meteohub,2013-08-16 19:08:00,
2013-08-16 12:13:00,103.8,52.0,30.00,East,98,5.0,10.0,18,0.00,,,0.00,976.0,meteohub,2013-08-16 19:13:00,
2013-08-16 12:18:00,103.8,50.4,30.00,NE,42,3.0,10.0,17,0.00,,,0.00,972.0,meteohub,2013-08-16 19:18:00,
2013-08-16 12:23:00,104.2,50.7,30.00,NNE,14,3.0,9.0,17,0.00,,,0.00,983.0,meteohub,2013-08-16 19:23:00,
2013-08-16 12:28:00,104.5,51.1,30.00,East,80,2.0,9.0,17,0.00,,,0.00,988.0,meteohub,2013-08-16 19:28:00,
2013-08-16 12:33:00,104.5,51.1,30.00,North,11,2.0,7.0,17,0.00,,,0.00,979.0,meteohub,2013-08-16 19:33:00,
2013-08-16 12:38:00,104.5,51.1,30.00,SE,130,2.0,7.0,17,0.00,,,0.00,986.0,meteohub,2013-08-16 19:38:00,
2013-08-16 12:43:00,104.5,49.3,29.99,ESE,114,2.0,13.0,16,0.00,,,0.00,997.0,meteohub,2013-08-16 19:43:00,
2013-08-16 12:48:00,104.9,49.6,29.99,NE,34,3.0,13.0,16,0.00,,,0.00,1005.0,meteohub,2013-08-16 19:48:00,
2013-08-16 12:53:00,105.3,48.2,29.99,East,87,3.0,8.0,15,0.00,,,0.00,1011.0,meteohub,2013-08-16 19:53:00,
2013-08-16 12:58:00,105.4,48.4,29.99,ENE,60,3.0,8.0,15,0.00,,,0.00,1002.0,meteohub,2013-08-16 19:58:00,
2013-08-16 13:03:00,106.2,47.1,29.99,East,86,7.0,11.0,14,0.00,,,0.00,1004.0,meteohub,2013-08-16 20:03:00,
2013-08-16 13:08:00,106.0,48.7,29.99,East,92,6.0,11.0,15,0.00,,,0.00,1021.0,meteohub,2013-08-16 20:08:00,
2013-08-16 13:13:00,105.4,48.4,29.99,SSE,161,1.0,9.0,15,0.00,,,0.00,1020.0,meteohub,2013-08-16 20:13:00,
2013-08-16 13:18:00,105.3,48.2,29.98,West,263,3.0,9.0,15,0.00,,,0.00,947.0,meteohub,2013-08-16 20:18:00,
2013-08-16 13:23:00,105.4,48.4,29.98,SSE,151,2.0,9.0,15,0.00,,,0.00,1018.0,meteohub,2013-08-16 20:23:00,
2013-08-16 13:28:00,106.0,48.7,29.98,South,180,3.0,9.0,15,0.00,,,0.00,1014.0,meteohub,2013-08-16 20:28:00,
2013-08-16 13:33:00,106.7,47.5,29.98,SE,139,4.0,8.0,14,0.00,,,0.00,1005.0,meteohub,2013-08-16 20:33:00,
2013-08-16 13:38:00,106.9,45.7,29.98,NE,41,5.0,8.0,13,0.00,,,0.00,1004.0,meteohub,2013-08-16 20:38:00,
2013-08-16 13:43:00,107.1,45.9,29.97,SE,134,4.0,8.0,13,0.00,,,0.00,990.0,meteohub,2013-08-16 20:43:00,
2013-08-16 13:48:00,106.3,45.3,29.97,NE,36,5.0,9.0,13,0.00,,,0.00,995.0,meteohub,2013-08-16 20:48:00,
2013-08-16 13:53:00,105.3,46.4,29.97,East,101,5.0,16.0,14,0.00,,,0.00,183.0,meteohub,2013-08-16 20:53:00,
2013-08-16 13:58:00,104.2,45.5,29.97,ENE,63,1.0,16.0,14,0.00,,,0.00,178.0,meteohub,2013-08-16 20:58:00,
2013-08-16 14:03:00,103.6,45.1,29.97,NE,48,2.0,16.0,14,0.00,,,0.00,200.0,meteohub,2013-08-16 21:03:00,
2013-08-16 14:08:00,104.2,45.5,29.97,NNW,327,5.0,11.0,14,0.00,,,0.00,1014.0,meteohub,2013-08-16 21:08:00,
2013-08-16 14:13:00,104.9,46.0,29.96,West,263,2.0,9.0,14,0.00,,,0.00,947.0,meteohub,2013-08-16 21:13:00,
2013-08-16 14:18:00,105.4,46.6,29.96,South,189,0.0,9.0,14,0.00,,,0.00,944.0,meteohub,2013-08-16 21:18:00,
2013-08-16 14:23:00,106.5,45.3,29.95,West,264,2.0,6.0,13,0.00,,,0.00,942.0,meteohub,2013-08-16 21:23:00,
2013-08-16 14:28:00,106.7,43.5,29.95,SSE,159,1.0,5.0,12,0.00,,,0.00,912.0,meteohub,2013-08-16 21:28:00,
2013-08-16 14:33:00,107.2,43.9,29.95,SSW,194,1.0,8.0,12,0.00,,,0.00,895.0,meteohub,2013-08-16 21:33:00,
2013-08-16 14:39:00,107.6,44.1,29.95,East,80,3.0,8.0,12,0.00,,,0.00,171.0,meteohub,2013-08-16 21:39:00,
2013-08-16 14:44:00,106.3,43.2,29.94,North,355,2.0,10.0,12,0.00,,,0.00,169.0,meteohub,2013-08-16 21:44:00,
2013-08-16 14:49:00,106.0,42.8,29.94,ESE,110,3.0,10.0,12,0.00,,,0.00,911.0,meteohub,2013-08-16 21:49:00,
2013-08-16 14:54:00,106.2,40.8,29.94,NNE,28,3.0,10.0,11,0.00,,,0.00,118.0,meteohub,2013-08-16 21:54:00,
2013-08-16 14:59:00,105.6,42.6,29.94,SE,127,1.0,7.0,12,0.00,,,0.00,127.0,meteohub,2013-08-16 21:59:00,
2013-08-16 15:04:00,105.1,42.3,29.93,East,100,2.0,7.0,12,0.00,,,0.00,144.0,meteohub,2013-08-16 22:04:00,
2013-08-16 15:09:00,105.3,42.3,29.94,SSE,150,3.0,8.0,12,0.00,,,0.00,795.0,meteohub,2013-08-16 22:09:00,
2013-08-16 15:14:00,105.3,42.3,29.94,East,88,7.0,8.0,12,0.00,,,0.00,271.0,meteohub,2013-08-16 22:14:00,
2013-08-16 15:19:00,105.4,42.4,29.94,SSE,152,1.0,9.0,12,0.00,,,0.00,795.0,meteohub,2013-08-16 22:19:00,
2013-08-16 15:24:00,106.2,43.0,29.93,ESE,113,2.0,9.0,12,0.00,,,0.00,786.0,meteohub,2013-08-16 22:24:00,
2013-08-16 15:29:00,106.5,43.3,29.93,WSW,250,2.0,9.0,12,0.00,,,0.00,777.0,meteohub,2013-08-16 22:29:00,
2013-08-16 15:34:00,106.9,43.5,29.93,South,189,3.0,6.0,12,0.00,,,0.00,761.0,meteohub,2013-08-16 22:34:00,
2013-08-16 15:39:00,107.4,44.1,29.93,SSW,202,4.0,7.0,12,0.00,,,0.00,747.0,meteohub,2013-08-16 22:39:00,
2013-08-16 15:44:00,107.8,42.1,29.93,East,86,3.0,7.0,11,0.00,,,0.00,670.0,meteohub,2013-08-16 22:44:00,
2013-08-16 15:49:00,107.6,44.1,29.93,ENE,64,7.0,7.0,12,0.00,,,0.00,622.0,meteohub,2013-08-16 22:49:00,
2013-08-16 15:54:00,107.1,43.7,29.93,ENE,63,3.0,7.0,12,0.00,,,0.00,728.0,meteohub,2013-08-16 22:54:00,
2013-08-16 15:59:00,107.1,43.7,29.92,ENE,74,3.0,11.0,12,0.00,,,0.00,670.0,meteohub,2013-08-16 22:59:00,
2013-08-16 16:04:00,107.1,43.7,29.92,East,98,5.0,11.0,12,0.00,,,0.00,686.0,meteohub,2013-08-16 23:04:00,
2013-08-16 16:09:00,107.2,43.9,29.92,ENE,71,2.0,8.0,12,0.00,,,0.00,578.0,meteohub,2013-08-16 23:09:00,
2013-08-16 16:14:00,107.2,41.5,29.92,ESE,107,1.0,8.0,11,0.00,,,0.00,635.0,meteohub,2013-08-16 23:14:00,
2013-08-16 16:19:00,107.4,41.7,29.92,NNW,337,2.0,7.0,11,0.00,,,0.00,650.0,meteohub,2013-08-16 23:19:00,
2013-08-16 16:24:00,107.4,41.7,29.92,ENE,74,2.0,5.0,11,0.00,,,0.00,267.0,meteohub,2013-08-16 23:24:00,
2013-08-16 16:29:00,106.5,41.0,29.92,North,11,1.0,6.0,11,0.00,,,0.00,123.0,meteohub,2013-08-16 23:29:00,
2013-08-16 16:34:00,106.2,40.8,29.92,NW,315,1.0,6.0,11,0.00,,,0.00,561.0,meteohub,2013-08-16 23:34:00,
2013-08-16 16:39:00,106.3,43.2,29.92,SW,215,4.0,6.0,12,0.00,,,0.00,513.0,meteohub,2013-08-16 23:39:00,
2013-08-16 16:44:00,106.2,43.0,29.92,SSE,167,1.0,4.0,12,0.00,,,0.00,155.0,meteohub,2013-08-16 23:44:00,
2013-08-16 16:49:00,106.0,42.8,29.92,South,169,2.0,7.0,12,0.00,,,0.00,211.0,meteohub,2013-08-16 23:49:00,
2013-08-16 16:54:00,106.0,42.8,29.92,South,169,1.0,7.0,12,0.00,,,0.00,223.0,meteohub,2013-08-16 23:54:00,
2013-08-16 16:59:00,105.3,50.0,29.92,SSW,196,7.0,7.0,16,0.00,,,0.00,132.0,meteohub,2013-08-16 23:59:00,
2013-08-16 17:04:00,104.2,49.1,29.92,SSW,204,4.0,7.0,16,0.00,,,0.00,142.0,meteohub,2013-08-17 00:04:00,
2013-08-16 17:09:00,103.6,48.7,29.93,SW,233,5.0,7.0,16,0.00,,,0.00,134.0,meteohub,2013-08-17 00:09:00,
2013-08-16 17:15:00,102.9,49.6,29.93,SW,230,3.0,7.0,17,0.00,,,0.00,121.0,meteohub,2013-08-17 00:15:00,
2013-08-16 17:20:00,102.6,50.9,29.93,WSW,237,3.0,9.0,18,0.00,,,0.00,104.0,meteohub,2013-08-17 00:20:00,
2013-08-16 17:25:00,102.4,50.9,29.93,WSW,251,4.0,9.0,18,0.00,,,0.00,90.0,meteohub,2013-08-17 00:25:00,
2013-08-16 17:30:00,102.0,50.5,29.93,SW,219,3.0,9.0,18,0.00,,,0.00,83.0,meteohub,2013-08-17 00:30:00,
2013-08-16 17:35:00,101.8,50.4,29.94,SSW,211,3.0,8.0,18,0.00,,,0.00,84.0,meteohub,2013-08-17 00:35:00,
2013-08-16 17:40:00,101.7,50.2,29.94,West,260,2.0,8.0,18,0.00,,,0.00,83.0,meteohub,2013-08-17 00:40:00,
2013-08-16 17:45:00,101.7,50.2,29.94,SW,223,5.0,6.0,18,0.00,,,0.00,74.0,meteohub,2013-08-17 00:45:00,
2013-08-16 17:50:00,101.7,50.2,29.94,SW,219,3.0,6.0,18,0.00,,,0.00,63.0,meteohub,2013-08-17 00:50:00,
2013-08-16 17:55:00,101.5,50.0,29.94,SW,226,3.0,6.0,18,0.00,,,0.00,58.0,meteohub,2013-08-17 00:55:00,
2013-08-16 18:00:00,101.1,51.3,29.94,SW,222,3.0,6.0,19,0.00,,,0.00,47.0,meteohub,2013-08-17 01:00:00,
2013-08-16 18:05:00,98.4,62.6,29.96,East,99,10.0,10.0,31,0.00,,,0.05,30.0,meteohub,2013-08-17 01:05:00,
2013-08-16 18:10:00,90.0,63.1,29.96,SW,214,8.0,15.0,41,0.05,,,0.12,26.0,meteohub,2013-08-17 01:10:00,
2013-08-16 18:15:00,86.5,65.7,29.96,WSW,250,3.0,16.0,50,0.12,,,0.18,25.0,meteohub,2013-08-17 01:15:00,
2013-08-16 18:20:00,83.7,60.6,29.96,WNW,293,7.0,15.0,46,0.25,,,0.25,28.0,meteohub,2013-08-17 01:20:00,
2013-08-16 18:25:00,84.4,63.1,29.94,NNW,333,3.0,13.0,49,0.25,,,0.25,26.0,meteohub,2013-08-17 01:25:00,
2013-08-16 18:30:00,83.7,65.3,29.94,NW,306,2.0,13.0,54,0.25,,,0.25,21.0,meteohub,2013-08-17 01:30:00,
2013-08-16 18:35:00,83.1,63.1,29.95,NNW,348,3.0,12.0,51,0.25,,,0.25,16.0,meteohub,2013-08-17 01:35:00,
2013-08-16 18:40:00,83.8,64.9,29.95,NNW,348,2.0,6.0,53,0.25,,,0.25,11.0,meteohub,2013-08-17 01:40:00,
2013-08-16 18:45:00,83.7,67.3,29.95,NNW,348,0.0,6.0,58,0.25,,,0.25,9.0,meteohub,2013-08-17 01:45:00,
2013-08-16 18:50:00,83.1,67.8,29.96,NNW,348,1.0,4.0,60,0.25,,,0.25,7.0,meteohub,2013-08-17 01:50:00,
2013-08-16 18:55:00,82.9,72.1,29.97,NNW,348,0.0,3.0,70,0.25,,,0.25,5.0,meteohub,2013-08-17 01:55:00,
2013-08-16 19:00:00,82.9,62.4,29.97,South,186,1.0,6.0,50,0.25,,,0.25,0.0,meteohub,2013-08-17 02:00:00,
2013-08-16 19:05:00,83.8,62.6,29.97,South,186,1.0,6.0,49,0.19,,,0.25,0.0,meteohub,2013-08-17 02:05:00,
2013-08-16 19:10:00,84.4,68.5,29.98,South,188,2.0,6.0,59,0.10,,,0.25,0.0,meteohub,2013-08-17 02:10:00,
2013-08-16 19:15:00,84.7,66.2,29.99,NW,317,1.0,2.0,54,0.05,,,0.25,0.0,meteohub,2013-08-17 02:15:00,
2013-08-16 19:20:00,84.9,64.2,29.98,NW,317,2.0,3.0,50,0.00,,,0.25,0.0,meteohub,2013-08-17 02:20:00,
2013-08-16 19:25:00,85.3,63.3,29.98,NW,317,1.0,3.0,48,0.00,,,0.25,0.0,meteohub,2013-08-17 02:25:00,
2013-08-16 19:30:00,85.5,70.0,29.98,NW,317,0.0,2.0,60,0.00,,,0.25,0.0,meteohub,2013-08-17 02:30:00,
2013-08-16 19:35:00,85.3,72.1,29.98,North,5,2.0,2.0,65,0.00,,,0.25,0.0,meteohub,2013-08-17 02:35:00,
2013-08-16 19:41:00,85.3,61.5,29.99,West,267,1.0,3.0,45,0.00,,,0.25,0.0,meteohub,2013-08-17 02:41:00,
2013-08-16 19:46:00,86.2,62.4,29.99,West,263,0.0,4.0,45,0.00,,,0.25,0.0,meteohub,2013-08-17 02:46:00,
2013-08-16 19:51:00,86.4,66.0,30.00,WSW,252,2.0,4.0,51,0.00,,,0.25,0.0,meteohub,2013-08-17 02:51:00,
2013-08-16 19:56:00,86.0,65.1,30.00,SW,223,2.0,4.0,50,0.00,,,0.25,0.0,meteohub,2013-08-17 02:56:00,
2013-08-16 20:01:00,86.2,62.4,30.01,SSW,204,0.0,5.0,45,0.00,,,0.25,0.0,meteohub,2013-08-17 03:01:00,
2013-08-16 20:06:00,86.2,63.0,30.01,SSW,204,1.0,6.0,46,0.00,,,0.25,0.0,meteohub,2013-08-17 03:06:00,
2013-08-16 20:11:00,86.2,64.8,30.02,SSW,204,0.0,6.0,49,0.00,,,0.25,0.0,meteohub,2013-08-17 03:11:00,
2013-08-16 20:16:00,85.8,64.4,30.03,SSW,204,1.0,3.0,49,0.00,,,0.25,0.0,meteohub,2013-08-17 03:16:00,
2013-08-16 20:21:00,85.8,63.3,30.04,West,263,4.0,7.0,47,0.00,,,0.25,0.0,meteohub,2013-08-17 03:21:00,
2013-08-16 20:26:00,86.5,62.1,30.04,SW,231,4.0,7.0,44,0.00,,,0.25,0.0,meteohub,2013-08-17 03:26:00,
2013-08-16 20:31:00,87.1,61.9,30.03,SW,221,3.0,9.0,43,0.00,,,0.25,0.0,meteohub,2013-08-17 03:31:00,
2013-08-16 20:36:00,87.1,61.2,30.03,SW,227,2.0,9.0,42,0.00,,,0.25,0.0,meteohub,2013-08-17 03:36:00,
2013-08-16 20:41:00,87.1,61.2,30.03,SW,227,2.0,9.0,42,0.00,,,0.25,0.0,meteohub,2013-08-17 03:41:00,
2013-08-16 20:46:00,87.1,61.9,30.04,West,264,2.0,6.0,43,0.00,,,0.25,0.0,meteohub,2013-08-17 03:46:00,
2013-08-16 20:51:00,86.7,62.8,30.04,WNW,299,1.0,6.0,45,0.00,,,0.25,0.0,meteohub,2013-08-17 03:51:00,
2013-08-16 20:56:00,86.5,63.3,30.04,WNW,299,0.0,4.0,46,0.00,,,0.25,0.0,meteohub,2013-08-17 03:56:00,
2013-08-16 21:01:00,86.4,65.5,30.05,WNW,299,0.0,4.0,50,0.00,,,0.25,0.0,meteohub,2013-08-17 04:01:00,
2013-08-16 21:02:00,86.2,64.8,30.05,WNW,299,0.0,4.0,49,0.00,,,0.25,0.0,meteohub,2013-08-17 04:02:00,
2013-08-16 21:06:00,85.8,64.4,30.05,WNW,299,0.0,2.0,49,0.00,,,0.25,0.0,meteohub,2013-08-17 04:06:00,
2013-08-16 21:12:00,85.6,60.6,30.05,SSW,210,1.0,4.0,43,0.00,,,0.25,0.0,meteohub,2013-08-17 04:12:00,
2013-08-16 21:17:00,86.0,62.2,30.05,SSW,210,1.0,4.0,45,0.00,,,0.25,0.0,meteohub,2013-08-17 04:17:00,
2013-08-16 21:22:00,86.0,64.0,30.05,SSW,210,1.0,4.0,48,0.00,,,0.25,0.0,meteohub,2013-08-17 04:22:00,
2013-08-16 21:27:00,85.6,63.7,30.05,SSW,210,0.0,4.0,48,0.00,,,0.25,0.0,meteohub,2013-08-17 04:27:00,
2013-08-16 21:32:00,85.3,67.8,30.06,SSW,210,1.0,2.0,56,0.00,,,0.25,0.0,meteohub,2013-08-17 04:32:00,
2013-08-16 21:37:00,84.6,66.0,30.06,SSW,210,1.0,1.0,54,0.00,,,0.25,0.0,meteohub,2013-08-17 04:37:00,
2013-08-16 21:41:00,84.4,62.6,30.06,SSW,210,1.0,2.0,48,0.00,,,0.25,0.0,meteohub,2013-08-17 04:41:00,
2013-08-16 21:47:00,84.4,63.7,30.06,ENE,71,2.0,3.0,50,0.00,,,0.25,0.0,meteohub,2013-08-17 04:47:00,
2013-08-16 21:52:00,84.4,61.9,30.06,ENE,70,1.0,3.0,47,0.00,,,0.25,0.0,meteohub,2013-08-17 04:52:00,
2013-08-16 21:57:00,84.4,64.2,30.06,ENE,70,0.0,3.0,51,0.00,,,0.25,0.0,meteohub,2013-08-17 04:57:00,
2013-08-16 22:02:00,84.0,63.3,30.06,ENE,70,0.0,3.0,50,0.00,,,0.25,0.0,meteohub,2013-08-17 05:02:00,
2013-08-16 22:07:00,83.8,63.1,30.07,ENE,70,0.0,2.0,50,0.00,,,0.25,0.0,meteohub,2013-08-17 05:07:00,
2013-08-16 22:12:00,83.7,63.7,30.06,ENE,70,0.0,2.0,51,0.00,,,0.25,0.0,meteohub,2013-08-17 05:12:00,
2013-08-16 22:17:00,83.3,66.6,30.06,ENE,70,0.0,2.0,57,0.00,,,0.25,0.0,meteohub,2013-08-17 05:17:00,
2013-08-16 22:22:00,82.9,64.0,30.06,ENE,70,1.0,1.0,53,0.00,,,0.25,0.0,meteohub,2013-08-17 05:22:00,
2013-08-16 22:27:00,82.9,64.6,30.06,ENE,70,0.0,2.0,54,0.00,,,0.25,0.0,meteohub,2013-08-17 05:27:00,
2013-08-16 22:32:00,82.9,67.1,30.06,ENE,70,0.0,2.0,59,0.00,,,0.25,0.0,meteohub,2013-08-17 05:32:00,
2013-08-16 22:36:00,82.8,65.5,30.06,ENE,70,0.0,2.0,56,0.00,,,0.25,0.0,meteohub,2013-08-17 05:36:00,
2013-08-16 22:42:00,82.6,67.3,30.06,ENE,70,0.0,1.0,60,0.00,,,0.25,0.0,meteohub,2013-08-17 05:42:00,
2013-08-16 22:47:00,82.2,68.4,30.06,ENE,70,0.0,0.0,63,0.00,,,0.25,0.0,meteohub,2013-08-17 05:47:00,
2013-08-16 22:52:00,82.0,68.2,30.06,ENE,70,0.0,1.0,63,0.00,,,0.25,0.0,meteohub,2013-08-17 05:52:00,
2013-08-16 22:57:00,81.9,68.9,30.06,ENE,70,0.0,1.0,65,0.00,,,0.25,0.0,meteohub,2013-08-17 05:57:00,
2013-08-16 23:02:00,81.3,69.3,30.06,ENE,70,0.0,1.0,67,0.00,,,0.25,0.0,meteohub,2013-08-17 06:02:00,
2013-08-16 23:07:00,81.1,70.3,30.06,ENE,70,0.0,1.0,70,0.00,,,0.25,0.0,meteohub,2013-08-17 06:07:00,
2013-08-16 23:12:00,81.0,70.2,30.06,ENE,70,0.0,1.0,70,0.00,,,0.25,0.0,meteohub,2013-08-17 06:12:00,
2013-08-16 23:17:00,80.4,68.0,30.06,ENE,70,0.0,1.0,66,0.00,,,0.25,0.0,meteohub,2013-08-17 06:17:00,
2013-08-16 23:22:00,80.4,69.3,30.06,ENE,70,1.0,1.0,69,0.00,,,0.25,0.0,meteohub,2013-08-17 06:22:00,
2013-08-16 23:27:00,80.2,70.0,30.06,ENE,70,0.0,1.0,71,0.00,,,0.25,0.0,meteohub,2013-08-17 06:27:00,
2013-08-16 23:32:00,80.1,69.8,30.06,ENE,70,0.0,1.0,71,0.00,,,0.25,0.0,meteohub,2013-08-17 06:32:00,
2013-08-16 23:37:00,79.9,70.0,30.06,ENE,70,0.0,1.0,72,0.00,,,0.25,0.0,meteohub,2013-08-17 06:37:00,
2013-08-16 23:42:00,79.7,68.2,30.05,ENE,70,0.0,0.0,68,0.00,,,0.25,0.0,meteohub,2013-08-17 06:42:00,
2013-08-16 23:47:00,79.5,67.6,30.05,ENE,70,0.0,1.0,67,0.00,,,0.25,0.0,meteohub,2013-08-17 06:47:00,
2013-08-16 23:52:00,79.3,67.5,30.05,ENE,70,0.0,1.0,67,0.00,,,0.25,0.0,meteohub,2013-08-17 06:52:00,
2013-08-16 23:57:00,79.3,68.4,30.05,ENE,70,0.0,1.0,69,0.00,,,0.25,0.0,meteohub,2013-08-17 06:57:00,